Notices

What's New in latest Release from April 7th, 2021:

- Updated Glossary, including Speed of Maximum Gust, and Total Hourly Precipitation

- Updated national and regional climate services offices contacts and prices information

- Addition of station inventory lists for 1981-2010, 1971-2000, and 1961-1990 Normals.

If you haven't already, please take our survey and provide feedback about our website: https://eccc.sondage-survey.ca/f/LanguageSelection.aspx?s=442ca660-fcf1-47c0-95a9-59707d6fd709

Hourly Data Report for November 27, 2019

MIRAMICHI RCS
NEW BRUNSWICK
Current Station Operator: ECCC - MSC

47°00'34.000" N
65°27'54.000" W
33.00 m
8100989
71744
ACQ

Download Data

Hourly Data (November 2019)
Hourly Data Report for November 27, 2019
TIME
LST
Temp Definition
°C
Dew Point Definition
°C
Rel Hum Definition
%
Precip. Amount Definition
mm

Wind Dir Definition
10's deg

Wind Spd Definition
km/h
Visibility Definition
km
Stn Press Definition
kPa
Hmdx Definition


Wind Chill Definition


Weather Definition


00:00 2.6 1.6 93 0.0 26 10   100.52     LegendNANA
01:00 2.6 1.3 91 0.0 25 12   100.60     LegendNANA
02:00 2.9 1.1 88 0.0 26 10   100.73     LegendNANA
03:00 3.2 0.4 82 0.0 29 11   100.83     LegendNANA
04:00 2.7 -0.1 82 0.0 29 10   100.90     LegendNANA
05:00 2.2 -0.3 84 0.0 26 8   100.96     LegendNANA
06:00 1.8 -0.6 84 0.0 27 11   100.98     LegendNANA
07:00 1.3 -1.7 80 0.0 28 13   101.07     LegendNANA
08:00 -0.1 -1.5 90 0.0 27 9   101.16   -3 LegendNANA
09:00 1.0 -3.2 74 0.0 28 10   101.21     LegendNANA
10:00 1.6 -4.2 65 0.0 30 13   101.19     LegendNANA
11:00 2.4 -4.5 60 0.0 30 15   101.14     LegendNANA
12:00 2.9 -4.8 57 0.0 29 22   101.05     LegendNANA
13:00 3.6 -4.5 55 0.0 29 20   101.01     LegendNANA
14:00 4.0 -4.8 53 0.0 28 20   100.98     LegendNANA
15:00 3.9 -4.6 54 0.0 29 15   100.98     LegendNANA
16:00 2.9 -4.7 57 0.0 30 7   100.98     LegendNANA
17:00 1.5 -5.1 62 0.0 33 7   100.99     LegendNANA
18:00 0.4 -5.0 67 0.0 2 5   100.91     LegendNANA
19:00 -0.7 -4.9 73 0.0 4 9   100.86   -4 LegendNANA
20:00 -1.1 -4.8 76 0.0 0 1   100.79   -1 LegendNANA
21:00 -1.6 -5.0 77 0.0 30 1   100.74   -2 LegendNANA
22:00 -1.3 -4.8 77 0.0   0   100.67     LegendNANA
23:00 -1.6 -4.7 79 0.0 35 2   100.62   -2 LegendNANA

Notes on Data Quality.

Legend

  • E = Estimated
  • M = Missing
  • NA = Not Available*
  • [empty] = Indicates an unobserved value
Date modified: